CAPE
0 0 0 0 0 0 0 0 0 0 1 0 1 5 10 8 9 6 11 9 29 30 28 26 24 21 21
0 0 0 0 0 0 0 0 0 0 0 1 0 2 0 7 12 11 13 12 21 22 22 11 20 32 26
0 0 0 0 0 0 0 0 0 0 0 0 0 0 5 7 6 9 6 7 12 5 4 2 6 5 13
0 0 0 0 0 0 0 0 0 0 0 0 0 0 0 0 0 0 0 3 6 6 15 17 28 32 29
0 0 1 0 0 0 0 0 0 0 0 0 0 0 0 0 0 0 0 7 3 5 9 18 13 27 25
0 1 0 0 0 0 0 0 0 0 0 0 0 0 0 0 0 0 0 5 7 2 2 3 2 6 10
0 0 0 0 0 0 0 0 2 0 0 1 0 0 0 0 0 0 0 2 2 2 1 1 1 2 3
0 0 0 0 1 1 0 0 0 0 0 0 0 0 0 0 0 0 0 0 2 4 2 2 1 2 0
0 4 5 1 0 0 0 0 0 0 0 0 0 0 0 0 0 0 0 0 0 0 1 2 1 0 1
0 0 0 0 0 0 0 0 0 0 0 0 0 0 0 0 0 0 0 0 0 0 0 0 1 1 0
0 0 0 0 0 0 0 0 0 0 0 0 0 0 0 0 0 0 0 0 0 0 0 0 0 3 1
0 0 0 0 0 0 0 0 0 0 0 1 0 0 0 0 0 0 0 0 0 0 0 0 0 2 5
0 0 0 0 0 0 0 0 0 0 0 0 0 0 0 0 0 0 0 0 0 0 0 0 0 0 0
0 0 0 0 0 0 0 0 1 0 0 0 0 0 0 0 0 0 0 0 0 0 0 0 0 1 1
1 2 2 0 0 0 0 0 0 0 0 0 0 0 0 0 1 1 1 1 0 0 0 0 0 0 0
2 1 1 1 1 0 0 0 0 0 1 0 0 1 0 0 0 0 0 0 0 0 0 0 0 0 0
1 1 1 0 0 0 1 0 0 0 0 0 0 0 0 0 0 0 0 0 0 1 0 0 1 0 0
CIN
0 0 0 0 0 0 0 0 0 0 -1 0 -2 -3 -3 -1 -2 -2 -1 -2 -1 -2 -2 -2 -1 -1 -1
0 0 0 0 0 0 0 0 0 0 0 -1 -1 -2 -1 -2 -1 -2 -2 -2 -2 -1 -1 -3 -1 -1 -1
0 0 0 0 0 0 0 0 0 0 0 0 0 0 -1 -1 -1 -1 -1 -1 -1 -1 -1 -1 -1 -2 -2
0 0 0 0 0 0 0 0 0 0 0 0 0 0 -1 0 0 0 0 -1 -1 -1 -1 -1 -1 0 -1
0 0 -1 -1 0 0 0 0 0 0 0 0 0 0 0 0 0 0 -1 -1 -1 -2 -1 -1 -2 -1 -1
-6 -1 0 0 0 0 0 0 0 0 0 0 0 0 0 0 0 0 0 -1 -1 -3 -2 -2 -3 -2 -1
-3 0 0 0 0 0 0 -1 -1 -1 0 0 0 0 0 0 0 0 0 -1 -1 -2 -3 -2 -2 -1 -2
0 0 0 0 -2 -4 0 0 0 0 0 0 0 0 0 0 0 0 0 0 -1 -1 -1 -1 -1 0 -1
-1 -1 -1 -2 -1 -1 0 0 0 0 0 0 0 0 0 0 0 0 0 0 0 0 -1 -1 -1 -1 0
0 0 0 0 0 0 0 0 0 0 0 0 0 0 0 0 0 0 0 0 0 0 0 -1 0 -1 -2
0 0 0 0 0 0 0 0 0 0 0 0 0 0 0 0 0 0 0 0 0 0 0 0 0 0 -1
0 0 0 0 0 0 0 0 0 0 0 0 0 0 0 0 0 0 0 0 0 0 0 0 0 0 0
0 0 0 0 0 0 0 0 0 0 0 0 0 0 0 0 0 0 0 0 0 0 0 0 0 -1 0
0 0 0 0 0 0 0 0 0 0 0 0 0 0 0 0 0 0 0 0 0 0 -1 0 0 0 0
0 0 0 0 0 0 0 0 0 0 0 0 0 0 0 0 0 0 0 0 0 0 0 -2 0 -1 0
0 0 0 0 0 0 0 0 0 0 0 0 0 0 0 0 0 0 0 0 0 0 0 0 0 0 0
0 0 0 0 0 0 0 0 0 0 0 0 0 0 0 0 0 -1 0 0 0 0 0 0 0 0 -1
Wind_Speed
41 42 43 45 45 45 46 46 45 46 48 48 46 45 47 45 46 45 43 43 44 45 47 47 47 45 45
44 43 44 44 46 47 45 44 44 44 44 42 43 42 42 41 40 42 45 47 47 47 48 47 49 48 47
47 44 44 46 46 45 45 44 42 40 41 39 38 38 32 35 39 39 44 47 47 47 47 47 46 47 47
46 47 47 47 45 50 50 44 43 38 37 37 36 34 37 37 37 38 39 47 47 46 46 46 47 48 47
46 47 49 50 49 47 46 44 40 39 38 35 34 37 37 36 35 38 46 47 48 48 47 47 46 45 43
46 49 49 47 45 44 42 42 44 36 33 39 39 38 37 35 37 42 48 49 46 47 47 43 42 41 39
47 45 44 42 41 39 37 37 39 41 42 44 40 38 37 37 40 45 47 47 45 42 40 38 39 40 41
38 38 37 35 35 37 39 39 39 39 37 42 41 42 41 39 41 42 41 42 41 42 44 43 40 40 42
34 34 35 37 36 37 37 39 41 40 37 36 37 41 43 40 35 34 36 40 46 45 43 42 43 42 41
32 33 32 31 32 31 33 37 39 41 34 34 39 39 38 30 31 37 39 39 44 45 44 43 42 40 39
34 33 32 31 31 30 30 31 35 34 32 34 33 33 31 45 41 39 40 39 37 42 43 42 41 40 41
32 33 32 32 32 31 30 28 26 24 24 25 23 22 31 46 47 42 39 38 35 40 38 40 42 42 43
32 31 31 31 31 30 31 29 26 24 22 17 14 13 14 22 41 47 46 40 40 37 39 39 40 42 44
29 30 31 31 32 31 32 35 35 33 28 18 11 12 14 14 19 38 40 37 32 32 34 36 39 42 24
30 32 31 31 31 31 31 32 33 43 41 39 21 15 13 17 30 26 27 26 28 29 29 30 28 22 20
29 29 29 30 31 30 30 28 14 33 27 21 23 19 14 16 17 21 24 24 23 22 21 25 30 19 24
27 26 26 26 25 22 19 12 17 24 21 19 20 22 23 24 23 16 18 18 20 22 22 23 27 30 32
Wind_Direction
323 325 325 324 323 322 322 321 320 319 318 316 315 315 313 312 311 309 308 306 302 298 294 291 291 290 289
323 324 324 325 324 323 323 322 321 320 320 319 318 317 315 315 314 310 305 300 298 296 294 291 285 284 284
321 324 325 325 324 323 323 323 323 322 321 320 320 320 323 321 316 313 307 301 297 295 290 285 287 282 280
322 323 324 325 324 323 323 324 323 324 322 319 320 320 321 319 316 314 312 294 285 287 286 284 280 277 279
323 324 324 325 324 325 323 325 325 324 322 323 323 321 320 319 317 315 296 287 285 281 281 278 278 277 280
324 324 324 325 325 325 325 326 324 329 328 322 322 321 320 319 315 310 298 290 293 288 283 287 285 284 284
324 324 324 326 326 326 326 325 323 323 322 318 322 320 319 317 313 307 301 292 295 297 296 295 292 288 283
327 327 327 329 328 327 326 325 324 324 325 319 321 317 316 315 312 308 305 302 299 296 294 291 291 289 285
332 332 332 331 331 330 329 329 326 328 328 326 326 321 317 314 316 315 313 305 296 293 292 291 288 287 285
339 337 338 337 336 335 332 328 327 327 335 333 328 328 324 324 323 317 314 310 294 290 289 288 285 287 285
341 342 342 341 340 338 336 332 328 327 330 331 331 329 326 306 312 318 316 314 311 297 290 286 282 282 282
345 344 344 343 341 339 337 334 331 326 329 333 330 328 327 294 291 316 319 317 315 301 297 282 273 273 275
347 346 345 342 340 340 339 338 337 335 334 331 317 295 313 273 278 293 302 313 294 273 278 270 268 277 281
349 347 345 345 343 342 340 338 335 335 340 340 320 313 300 297 273 276 281 289 267 265 264 263 266 287 248
352 350 349 348 347 345 343 341 337 312 299 319 345 335 320 278 271 266 265 263 262 261 260 258 255 251 252
355 354 353 351 349 348 346 346 329 287 280 279 281 287 300 273 250 262 263 262 262 259 257 257 259 258 249
360 358 356 354 353 353 353 299 281 279 279 282 281 280 284 282 279 257 258 265 264 262 259 256 258 261 260